#timestamp,LO_Frequency,Hit,StdDev 
1571072415.8,286046998.9,N
1571072435.6,286046999.6,N
1571072455.5,286046996.8,N
1571072475.3,286047001.2,N
1571072495.1,286046997.0,N
1571072515.9,286046998.9,N
1571072535.7,286046998.4,N
1571072555.5,286046999.8,N
1571072575.4,286047000.6,N
1571072595.2,286047000.0,N
1571072615.1,286046999.9,N
1571072616.0,286046999.9,N
1571072635.8,286047002.4,N
1571072655.6,286046999.9,N
1571072675.5,286046998.2,N
1571072695.3,286047000.9,N
1571072715.2,286047001.6,N
1571072735.9,286047002.6,N
1571072755.7,286047005.2,Y
1571072775.6,286047004.5,P
1571072795.4,286047007.2,N
1571072815.3,286047003.9,N
1571072835.1,286047005.9,N
1571072836.0,286047005.9,N
1571072855.8,286047004.3,N
1571072875.7,286047002.1,N
1571072895.5,286047004.3,N
1571072915.3,286047003.5,N
1571072935.2,286047002.9,N
1571072955.0,286047004.6,N
1571072955.9,286047004.6,N
1571072975.8,286047006.8,Y
1571072995.6,286047004.1,P
1571073015.4,286047003.4,P
1571073035.3,286047004.7,P
1571073055.1,286047002.6,Y
1571073075.9,286046993.3,P
1571073095.7,286046996.1,N
1571073115.5,286046994.1,N
1571073135.4,286046993.7,N
1571073155.2,286046997.5,N
1571073175.0,286046994.2,N
1571073176.0,286046994.2,N
1571073195.8,286046994.3,N
1571073215.6,286046993.3,N
1571073235.5,286046995.9,N
1571073255.3,286046995.1,N
1571073275.1,286046996.1,N
1571073295.9,286046995.7,N
1571073315.7,286046996.9,N
1571073335.6,286046998.2,N
1571073355.4,286046998.7,N
1571073375.2,286046999.6,N
1571073395.1,286046993.4,N
1571073396.0,286046993.4,N
1571073415.8,286046997.8,N
1571073435.6,286046997.0,N
1571073455.5,286046996.6,N
1571073475.3,286046997.1,N
1571073495.2,286046996.6,N
1571073515.0,286046996.2,N
1571073515.9,286046996.2,N
1571073535.7,286046995.7,N
1571073555.6,286046997.5,N
1571073575.4,286046999.1,N
1571073595.3,286046998.4,N
1571073615.1,286046997.3,N
1571073616.0,286046997.3,N
1571073635.8,286046995.6,N
1571073655.7,286046998.0,N
1571073675.5,286046997.0,N
1571073695.4,286046999.1,N
1571073715.2,286047011.9,Y
1571073735.0,286047001.1,P
1571073735.9,286047001.1,N
1571073755.8,286047000.6,N
1571073775.6,286047000.2,N
1571073795.4,286047002.2,N
1571073815.3,286046999.9,N
1571073835.1,286047001.1,N
1571073855.9,286046996.8,N
1571073875.7,286047001.2,N
1571073895.5,286046999.2,N
1571073915.4,286047000.9,N
1571073935.2,286046998.8,N
1571073955.1,286046998.3,N
1571073956.0,286046998.3,N
1571073975.8,286046999.1,N
1571073995.6,286047002.4,N
1571074015.5,286046998.8,N
1571074035.3,286046997.2,N
1571074055.2,286046995.1,N
1571074075.9,286046995.7,N
1571074095.3,286046996.7,N
1571074115.1,286047000.8,N
1571074116.0,286047000.8,N
1571074135.8,286046999.8,N
1571074155.7,286046998.2,N
1571074175.5,286047000.7,N
1571074195.4,286047000.5,N
1571074215.2,286047000.2,N
1571074235.0,286046998.9,N
1571074235.9,286046998.9,N
1571074255.8,286046999.1,N
1571074275.6,286046996.8,N
1571074295.5,286046999.4,N
1571074315.3,286046998.8,N
1571074335.1,286046999.2,N
1571074355.9,286047000.3,N
1571074375.7,286047000.4,N
1571074395.5,286047000.1,N
1571074415.4,286047002.7,N
1571074435.2,286047002.6,N
1571074455.1,286047000.8,N
1571074456.0,286047000.8,N
1571074475.8,286046998.6,N
1571074495.6,286046996.5,N
1571074515.5,286047000.9,N
1571074535.3,286047002.6,N
1571074555.1,286047000.2,N
1571074575.9,286047002.8,N
1571074595.7,286047001.9,N
1571074615.6,286047002.0,N
1571074635.4,286047001.4,N
1571074655.2,286047003.6,N
1571074675.1,286047003.5,N
1571074676.0,286047003.5,N
1571074695.3,286047003.9,N
1571074715.1,286047005.9,Y
1571074735.9,286047002.1,P
1571074755.7,286047000.0,N
1571074775.6,286047000.7,N
1571074795.4,286047002.5,Y
1571074815.2,286047001.7,P
1571074835.1,286047001.4,P
1571074836.0,286047001.4,P
1571074855.8,286047004.4,Y
1571074875.7,286047001.8,P
1571074895.5,286047000.6,N
1571074915.3,286046998.4,P
1571074935.2,286047000.9,N
1571074955.0,286047000.6,N
1571074955.9,286047000.6,N
1571074975.8,286047000.3,N
1571074995.6,286046999.0,N
1571075015.4,286046998.2,N
1571075035.3,286046997.0,N
1571075055.1,286046999.4,N
1571075075.8,286047000.0,N
1571075095.7,286047011.9,Y
1571075115.5,286047000.4,P
1571075135.4,286047001.5,P
1571075155.2,286047002.6,P
1571075175.0,286047002.4,N
1571075175.9,286047002.4,N
1571075195.8,286047001.2,N
1571075215.6,286046999.4,N
1571075235.5,286046998.1,N
1571075255.3,286046999.9,N
1571075275.1,286047004.3,Y
1571075295.9,286047000.6,P
1571075315.7,286047000.2,N
1571075335.6,286047002.7,P
1571075355.4,286046999.8,N
1571075375.2,286047002.1,N
1571075395.1,286047002.2,N
1571075396.0,286047002.2,N
1571075415.8,286047004.3,Y
1571075435.7,286047001.3,P
1571075455.5,286046998.7,P
1571075475.3,286047000.8,N
1571075495.2,286046998.2,N
1571075515.0,286047000.7,N
1571075515.9,286047000.7,N
1571075535.7,286046998.5,N
1571075555.6,286046998.2,N
1571075575.4,286047000.6,N
1571075595.3,286047000.1,N
1571075615.1,286047001.2,N
1571075635.8,286046999.0,N
1571075655.7,286047000.9,N
1571075675.5,286047001.0,N
1571075695.4,286046998.5,N
1571075715.2,286046998.1,N
1571075735.0,286046998.4,N
1571075735.9,286046998.4,N
1571075755.8,286046998.4,N
1571075775.6,286047001.2,N
1571075795.5,286046998.7,N
1571075815.3,286046999.1,N
1571075835.1,286046996.8,N
1571075855.9,286046995.5,Y
1571075875.7,286046995.7,P
1571075895.6,286046995.8,N
1571075915.4,286046996.2,N
1571075935.2,286046994.9,Y
1571075955.1,286047000.5,P
1571075956.0,286047000.5,N
1571075975.8,286047000.3,N
1571075995.6,286046999.9,N
